Regional Weather Roundup
Issued by NWS

Home | Current Version | Previous Version | Graphics & Text | Print | Product List | Glossary On
Versions: 1 2 3 4 5 6 7 8 9 10 11 12 13 14 15 16 17 18 19 20 21 22 23 24 25 26 27 28 29 30 31 32 33 34 35 36 37 38 39 40 41 42 43 44 45 46 47 48 49 50
000
ASUS43 KDMX 191907
RWRIA

WEATHER ROUNDUP FOR IOWA
NATIONAL WEATHER SERVICE DES MOINES IA
200 PM CDT SUN APR 19 2015

NOTE: "FAIR" INDICATES FEW OR NO CLOUDS BELOW 12,000 FEET WITH NO
SIGNIFICANT WEATHER AND/OR OBSTRUCTIONS TO VISIBILITY.

* - THESE STATIONS ARE NOT NWS STATIONS...THUS NOT UNDER NWS
QUALITY CONTROL.  THEY ALSO DO NOT REPORT WEATHER SUCH
AS PRECIPITATION OR FOG.

IAZ001>003-012>014-020>022-031>034-043>046-192000-
   NORTHWEST IOWA

CITY           SKY/WX    TMP DP  RH WIND       PRES   REMARKS
CARROLL *      HVY RAIN  54  54 100 NW21G30   29.65S
CHEROKEE *     LGT RAIN  50  48  93 NW16G26   29.72R
DENISON *      LGT RAIN  50  50 100 NW21G30   29.68S
LE MARS *      CLOUDY    52  45  76 NW23G32   29.76S
ORANGE CITY *  CLOUDY    52  45  76 N21G28    29.73F
SHELDON *      CLOUDY    50  48  93 NW25      29.71F
SIOUX CITY     CLOUDY    52  43  71 NW24G33   29.76S
SPENCER        CLOUDY    54  47  77 NW23G31   29.68F
STORM LAKE *   LGT RAIN  50  48  93 NW22G31   29.69R
$$

IAZ055>058-069>071-079>083-090>094-192000-
   SOUTHWEST IOWA

CITY           SKY/WX    TMP DP  RH WIND       PRES   REMARKS
ATLANTIC *     RAIN      54  54 100 NW23G31   29.65F
AUDUBON *      RAIN      54  52  94 NW16G26   29.66F
CLARINDA *     CLOUDY    55  54  94 NW18G29   29.66F
COUNCIL BLFS * DRIZZLE   50  50 100 N22G33    29.70S
CRESTON *      HVY RAIN  57  57 100 NW9       29.61F
HARLAN  *      LGT RAIN  54  54 100 NW26G35   29.70F
LAMONI         CLOUDY    63  59  87 W14       29.58F
RED OAK *      LGT RAIN  54  54 100 NW20G30   29.66F
SHENANDOAH *   CLOUDY    55  52  88 N18G31    29.68S
$$

IAZ047>049-059>061-072>074-084-192000-
   CENTRAL IOWA

CITY           SKY/WX    TMP DP  RH WIND       PRES   REMARKS
AMES           CLOUDY    64  56  75 NW5       29.58F
ANKENY *       CLOUDY    63  57  82 NW6       29.58F
CHARITON *     CLOUDY    66  57  72 CALM      29.55F
DES MOINES     CLOUDY    64  57  78 NW9       29.57F
GRINNELL*      PTSUNNY   63  57  82 CALM      29.58F
KNOXVILLE *    PTSUNNY   66  55  68 CALM      29.55F
MARSHALLTOWN   PTSUNNY   63  58  83 E7        29.58F
PELLA *        MOSUNNY   68  61  77 CALM      29.57F
PERRY *        RAIN      59  57  94 NW8       29.60F
$$

IAZ004>006-015-016-023>025-035-036-192000-
   NORTH CENTRAL IOWA

CITY           SKY/WX    TMP DP  RH WIND       PRES   REMARKS
ALGONA *       DRIZZLE   55  54  94 N15G22    29.64F
CLARION *      RAIN      59  59 100 NW14      29.61F
ESTHERVILLE    CLOUDY    50  47  89 N21G33    29.67F
FORT DODGE *   CLOUDY    59  54  82 NW7       29.62F
MASON CITY     CLOUDY    62  55  77 E5        29.61F
FOREST CITY *  LGT RAIN  57  55  94 NW13      29.61F
IOWA FALLS *   CLOUDY    63  55  77 CALM      29.59F
$$

IAZ007>011-017>019-026>030-037>042-050>054-066-192000-
   NORTHEAST IOWA

CITY           SKY/WX    TMP DP  RH WIND       PRES   REMARKS
CEDAR RAPIDS   MOSUNNY   69  54  58 NE5       29.56F
CHARLES CITY * CLOUDY    63  59  88 N5        29.60F
CLINTON *      MOSUNNY   73  46  38 E12       29.59F
DECORAH *      MOSUNNY   55  48  76 CALM      29.62F
DUBUQUE        PTSUNNY   74  46  36 MISG      29.59F
MONTICELLO *   SUNNY     72  48  43 VRB5G12   29.57F
OELWEIN *      SUNNY     61  54  77 SE6       29.61F
WATERLOO       CLOUDY    60  53  77 NE5       29.59F
$$

IAZ064-065-067-068-078-192000-
   EAST CENTRAL IOWA

CITY           SKY/WX    TMP DP  RH WIND       PRES   REMARKS
DAVENPORT      SUNNY     75  46  35 MISG      29.56F
IOWA CITY      PTSUNNY   71  53  52 N7        29.57F
MT. PLEASANT * PTSUNNY   70  52  52 CALM      29.55F
MUSCATINE *    MOSUNNY   75  50  41 VRB6      29.55F
QUAD CITIES    MOSUNNY   78  48  34 E12       29.54F
$$

IAZ062-063-075>077-085>089-095>099-192000-
   SOUTHEAST IOWA

CITY           SKY/WX    TMP DP  RH WIND       PRES   REMARKS
BURLINGTON     PTSUNNY   75  54  47 W7        29.53F
FAIRFIELD *    MOSUNNY   68  54  60 E9G15     29.56F
FORT MADISON * SUNNY     72  54  53 CALM      29.55F
KEOKUK *       SUNNY     68  55  64 CALM      29.55F
OSKALOOSA *      N/A     70  55  60 NE12      29.55F
CENTERVILLE *  PTSUNNY   68  61  77 NE7       29.57F
OTTUMWA        MOSUNNY   72  56  57 NE12      29.54F
WASHINGTON *   PTSUNNY   70  54  56 E8        29.56F
$$

ABBREVIATIONS USED IN REMARKS
   TC - TEMPERATURES IN CELSIUS
  WCI - WIND CHILL INDEX
   HX - HEAT INDEX
  VSB - VISIBILITY
$$




USA.gov is the U.S. government's official web portal to all federal, state and local government web resources and services.